Location: Unnamed
(48.2382°N, 16.3826°E)
Time: 07:59:21
(UTC+02:00)

Falcon 9 debris - Pass Details

Date: 17 August 2020
Orbit: 426 x 434 km, 53.0° (Epoch: 21 September)

Event Time Altitude Azimuth Distance (km) Brightness Sun altitude
Rises 00:13:42 0° 295° (WNW) 2,414 ? -27.6°
Reaches altitude 10° 00:15:49 10° 293° (WNW) 1,543 ? -27.7°
Enters shadow 00:15:56 11° 292° (WNW) 1,500 ? -27.7°
